GW4558 Weather Reports


time (UTC)temp
C
wind
direction
speed
KPH
gust
KPH
rain 1hr
cm
rain 24hr
cm
rain mn
cm
humidity
%
barometer
mb
20260906171543 37 81 3.2 9.7 0.00 0.00 0.00 43 1015.3
20260906170040 37 0 3.2 16.1 0.00 0.00 0.00 44 1015.5
20260906164542 36 69 3.2 8.0 0.00 0.00 0.00 46 1015.8
20260906163103 36 121 3.2 14.5 0.00 0.00 0.00 46 1015.9
20260906161543 36 87 3.2 11.3 0.00 0.00 0.00 48 1015.9
20260906160040 35 82 4.8 12.9 0.00 0.00 0.00 49 1016.0
20260906154545 35 106 1.6 9.7 0.00 0.00 0.00 51 1015.8
20260906153051 33 101 3.2 11.3 0.00 0.00 0.00 56 1015.8
20260906151543 33 88 3.2 11.3 0.00 0.00 0.00 57 1015.8
20260906150048 32 92 3.2 9.7 0.00 0.00 0.00 59 1015.7
20260906144544 31 107 1.6 12.9 0.00 0.00 0.00 61 1015.9
20260906143047 31 37 1.6 6.4 0.00 0.00 0.00 65 1015.7
20260906141542 29 101 1.6 6.4 0.00 0.00 0.00 68 1015.6
20260906140044 28 63 1.6 6.4 0.00 0.00 0.00 71 1015.5
20260906134544 27 67 0.0 9.7 0.00 0.00 0.00 74 1015.4
20260906133046 26 93 1.6 4.8 0.00 0.00 0.00 77 1015.4
20260906131539 25 94 1.6 4.8 0.00 0.00 0.00 79 1015.3
20260906130046 24 74 0.0 4.8 0.00 0.00 0.00 83 1015.4
20260906124540 23 0 0.0 3.2 0.00 0.00 0.00 86 1015.2
20260906123049 22 101 0.0 3.2 0.00 0.00 0.00 88 1015.0
20260906121541 21 101 0.0 3.2 0.00 0.00 0.00 88 1014.8
20260906120055 21 0 0.0 0.0 0.00 0.00 0.00 88 1014.7
20260906114542 21 0 0.0 0.0 0.00 0.00 0.00 88 1014.6
20260906113046 21 0 0.0 0.0 0.00 0.00 0.00 88 1014.6
20260906111542 21 0 0.0 0.0 0.00 0.00 0.00 87 1014.4
20260906110044 21 0 0.0 0.0 0.00 0.00 0.00 87 1014.5
20260906104541 22 0 0.0 0.0 0.00 0.00 0.00 86 1014.3
20260906103045 22 0 0.0 0.0 0.00 0.00 0.00 86 1014.3
20260906101544 22 0 0.0 0.0 0.00 0.00 0.00 84 1014.3
20260906100040 22 0 0.0 0.0 0.00 0.00 0.00 83 1014.3
20260906094539 23 0 0.0 3.2 0.00 0.00 0.00 83 1014.1
20260906093054 23 0 0.0 1.6 0.00 0.00 0.00 82 1014.0
20260906091541 23 0 0.0 1.6 0.00 0.00 0.00 82 1013.9
20260906090044 23 0 0.0 1.6 0.00 0.00 0.00 81 1013.7
20260906084552 23 0 0.0 0.0 0.00 0.00 0.00 80 1013.6
20260906083045 23 0 0.0 0.0 0.00 0.00 0.00 80 1013.7
20260906081546 23 0 0.0 0.0 0.00 0.00 0.00 80 1013.7
20260906080051 23 0 0.0 0.0 0.00 0.00 0.00 80 1013.5
20260906074542 23 0 0.0 0.0 0.00 0.00 0.00 80 1013.6
20260906073042 23 0 0.0 0.0 0.00 0.00 0.00 79 1013.6
20260906071544 23 0 0.0 0.0 0.00 0.00 0.00 79 1013.8
20260906070041 23 0 0.0 0.0 0.00 0.00 0.00 79 1013.8
20260906064546 23 0 0.0 0.0 0.00 0.00 0.00 79 1014.0
20260906063043 23 0 0.0 3.2 0.00 0.00 0.00 79 1014.1
20260906061547 24 0 0.0 0.0 0.00 0.00 0.00 78 1014.0
20260906060052 24 0 0.0 0.0 0.00 0.00 0.00 77 1014.1
20260906054548 24 0 0.0 0.0 0.00 0.00 0.00 77 1014.2
20260906053045 25 0 0.0 0.0 0.00 0.00 0.00 76 1014.1
20260906051545 25 0 0.0 3.2 0.00 0.00 0.00 76 1014.1
20260906050047 25 0 0.0 0.0 0.00 0.00 0.00 76 1014.0
20260906044545 25 0 0.0 0.0 0.00 0.00 0.00 75 1014.2
20260906043046 25 0 0.0 0.0 0.00 0.00 0.00 74 1014.3
20260906041547 25 0 0.0 1.6 0.00 0.00 0.00 73 1014.3
20260906040047 25 0 0.0 1.6 0.00 0.00 0.00 73 1014.0
20260906034545 26 0 0.0 0.0 0.00 0.00 0.00 73 1013.9
20260906033045 26 0 0.0 0.0 0.00 0.00 0.00 71 1014.0
20260906031541 26 0 0.0 1.6 0.00 0.00 0.00 69 1013.8
20260906030051 27 0 0.0 0.0 0.00 0.00 0.00 67 1013.8
20260906024548 27 0 0.0 0.0 0.00 0.00 0.00 67 1013.5
20260906023046 28 0 0.0 0.0 0.00 0.00 0.00 65 1013.4
20260906021545 28 0 0.0 0.0 0.00 0.00 0.00 63 1013.2
20260906020048 29 0 1.6 6.4 0.00 0.00 0.00 62 1012.8
20260906014546 30 0 0.0 1.6 0.00 0.00 0.00 59 1012.5
20260906013042 30 0 0.0 1.6 0.00 0.00 0.00 58 1012.5
20260906011551 31 101 0.0 1.6 0.00 0.00 0.00 56 1012.5
20260906010041 31 0 0.0 9.7 0.00 0.00 0.00 55 1012.4
20260906004543 31 0 1.6 9.7 0.00 0.00 0.00 56 1012.2
20260906003044 32 0 0.0 3.2 0.00 0.00 0.00 53 1012.2
20260906001543 33 0 0.0 0.0 0.00 0.00 0.00 48 1012.2
20260906000044 34 0 0.0 1.6 0.00 0.00 0.00 47 1012.3
20260905234542 35 0 0.0 0.0 0.00 0.00 0.00 44 1012.1
20260905233103 36 0 0.0 3.2 0.00 0.00 0.00 41 1012.1
20260905231553 37 59 1.6 8.0 0.00 0.00 0.00 40 1012.1
20260905230047 37 0 0.0 6.4 0.00 0.00 0.00 40 1012.1
20260905224559 37 48 0.0 12.9 0.00 0.00 0.00 39 1012.0
20260905223050 38 0 0.0 4.8 0.00 0.00 0.00 38 1012.0
20260905221545 37 161 1.6 4.8 0.00 0.00 0.00 39 1012.0
20260905220048 36 194 3.2 8.0 0.00 0.00 0.00 42 1012.2
20260905214543 35 0 3.2 8.0 0.00 0.00 0.00 46 1012.3
20260905213043 35 327 1.6 12.9 0.00 0.00 0.00 45 1012.5
20260905211540 35 207 1.6 11.3 0.00 0.00 0.00 42 1012.5
20260905210042 39 117 6.4 16.1 0.00 0.00 0.00 37 1012.7
20260905204544 40 51 4.8 14.5 0.00 0.00 0.00 36 1012.9
20260905203041 39 0 3.2 9.7 0.00 0.00 0.00 36 1013.0
20260905201545 38 204 1.6 8.0 0.00 0.00 0.00 36 1013.2
20260905200049 37 217 3.2 12.9 0.00 0.00 0.00 38 1013.5
20260905194541 37 135 1.6 6.4 0.00 0.00 0.00 39 1013.6
20260905193041 36 311 0.0 4.8 0.00 0.00 0.00 41 1013.6
20260905191549 37 0 3.2 12.9 0.00 0.00 0.00 40 1013.9
20260905190058 37 50 1.6 9.7 0.00 0.00 0.00 41 1014.2
20260905184558 37 315 3.2 12.9 0.00 0.00 0.00 40 1014.3
20260905183045 37 86 3.2 12.9 0.00 0.00 0.00 39 1014.6
20260905181540 37 114 0.0 14.5 0.00 0.00 0.00 42 1015.0
20260905180043 37 90 3.2 14.5 0.00 0.00 0.00 42 1015.1
20260905174553 37 78 1.6 14.5 0.00 0.00 0.00 43 1015.4
20260905173045 36 124 1.6 9.7 0.00 0.00 0.00 45 1015.7